Powrót do katalogu

ATLAS CENTAUR R/B

AktywnyGTO
NORAD 10722·ROCKET BODY·🇺🇸 United States

Wystrzelony Jan 7, 1978 z Cape Canaveral Space Force Station

Loading…

TLE

Starzejące sięSource: Space-Track

Epoka: Sep 14, 2026, 14:18 UTC

1 10722U 78002B   26257.59616110 -.00000124  00000-0  11495-2 0  9990
2 10722  21.6640 309.8818 7173986 227.8488  38.1525  2.21875554286593

Śledź ATLAS CENTAUR R/B w czasie rzeczywistym z AllMySat

Download on the App Store